HVN214 VVTS-VVDN

Flight info

Callsign HVN214
Flight time 1h 3m
Altitude 35000
Route K0865F350 KADUM2G PATMA Q2 LATOM LATOM2K
Aircraft A21N/M-SDE2E3FGHIRWXY/LB1

Departure

Time 2026-04-24 05:02
Airport Tan Son Nhat International Airport (VVTS)

Arrival

Time 2026-04-24 06:05
Airport Da Nang International Airport (VVDN)
Time Latitude Longitude Altitude Speed Heading
2026-04-24 04:41 10.81523 106.66136 28 ft 0 kts 95°
2026-04-24 04:51 10.81524 106.66124 28 ft 2 kts 95°
2026-04-24 04:51 10.81525 106.66109 28 ft 2 kts 95°
2026-04-24 04:51 10.81526 106.66093 28 ft 2 kts 95°
2026-04-24 04:52 10.81528 106.66078 28 ft 2 kts 95°
2026-04-24 04:52 10.81529 106.66068 28 ft 2 kts 95°
2026-04-24 04:52 10.81526 106.66053 28 ft 2 kts 59°
2026-04-24 04:52 10.81516 106.66042 28 ft 2 kts 32°
2026-04-24 04:53 10.81504 106.66037 28 ft 0 kts
2026-04-24 04:53 10.81498 106.66036 28 ft 1 kts
2026-04-24 04:53 10.81496 106.66036 28 ft 0 kts
2026-04-24 04:56 10.81497 106.66036 28 ft 0 kts
2026-04-24 04:56 10.81512 106.66038 28 ft 3 kts
2026-04-24 04:57 10.81545 106.66040 28 ft 5 kts
2026-04-24 04:57 10.81596 106.66045 28 ft 9 kts
2026-04-24 04:57 10.81673 106.66053 28 ft 12 kts
2026-04-24 04:57 10.81762 106.66062 28 ft 13 kts
2026-04-24 04:58 10.81852 106.66084 28 ft 13 kts 40°
2026-04-24 04:58 10.81898 106.66169 28 ft 14 kts 69°
2026-04-24 04:58 10.81933 106.66262 28 ft 14 kts 69°
2026-04-24 04:58 10.81968 106.66354 28 ft 14 kts 68°
2026-04-24 04:59 10.82004 106.66448 28 ft 14 kts 69°
2026-04-24 04:59 10.82038 106.66542 29 ft 14 kts 65°
2026-04-24 04:59 10.82106 106.66557 30 ft 12 kts 300°
2026-04-24 04:59 10.82135 106.66473 31 ft 12 kts 284°
2026-04-24 05:00 10.82151 106.66385 31 ft 12 kts 268°
2026-04-24 05:00 10.82133 106.66322 31 ft 0 kts 249°
2026-04-24 05:01 10.82124 106.66300 30 ft 15 kts 249°
2026-04-24 05:01 10.81991 106.65948 28 ft 88 kts 248°
2026-04-24 05:01 10.81692 106.65164 29 ft 149 kts 249°
2026-04-24 05:01 10.81258 106.64023 161 ft 185 kts 248°
2026-04-24 05:02 10.80829 106.62837 840 ft 178 kts 249°
2026-04-24 05:02 10.80398 106.61659 1439 ft 181 kts 246°
2026-04-24 05:02 10.79915 106.60441 1900 ft 190 kts 246°
2026-04-24 05:02 10.79407 106.59154 2234 ft 206 kts 246°
2026-04-24 05:03 10.78956 106.57709 2552 ft 226 kts 263°
2026-04-24 05:03 10.79335 106.56097 2793 ft 251 kts 304°
2026-04-24 05:03 10.80721 106.54948 3129 ft 269 kts 341°
2026-04-24 05:03 10.82598 106.54826 3602 ft 279 kts 17°
2026-04-24 05:04 10.84222 106.55820 4329 ft 275 kts 50°
2026-04-24 05:04 10.85379 106.57353 5065 ft 277 kts 56°
2026-04-24 05:04 10.86540 106.58935 5656 ft 286 kts 53°
2026-04-24 05:04 10.87816 106.60476 6359 ft 290 kts 49°
2026-04-24 05:05 10.89204 106.61992 7059 ft 294 kts 46°
2026-04-24 05:05 10.90638 106.63454 7759 ft 297 kts 44°
2026-04-24 05:05 10.92130 106.64919 8481 ft 300 kts 41°
2026-04-24 05:05 10.93616 106.66353 9359 ft 296 kts 41°
2026-04-24 05:06 10.95111 106.67769 10122 ft 297 kts 41°
2026-04-24 05:06 10.96668 106.69230 10538 ft 310 kts 41°
2026-04-24 05:06 10.98297 106.70757 10834 ft 327 kts 41°
2026-04-24 05:06 10.99999 106.72350 11120 ft 343 kts 41°
2026-04-24 05:07 11.01785 106.74026 11397 ft 359 kts 41°
2026-04-24 05:07 11.03648 106.75774 11664 ft 374 kts 41°
2026-04-24 05:07 11.05596 106.77604 11990 ft 386 kts 41°
2026-04-24 05:07 11.07570 106.79454 12655 ft 389 kts 43°
2026-04-24 05:08 11.09559 106.81325 13685 ft 383 kts 43°
2026-04-24 05:08 11.11507 106.83163 14442 ft 384 kts 43°
2026-04-24 05:08 11.13473 106.85015 15061 ft 389 kts 43°
2026-04-24 05:08 11.15470 106.86896 15687 ft 393 kts 43°
2026-04-24 05:09 11.17462 106.88770 16302 ft 396 kts 43°
2026-04-24 05:09 11.19506 106.90694 16911 ft 400 kts 43°
2026-04-24 05:09 11.21546 106.92615 17496 ft 403 kts 43°
2026-04-24 05:09 11.23590 106.94538 18062 ft 406 kts 43°
2026-04-24 05:10 11.25680 106.96506 18623 ft 410 kts 43°
2026-04-24 05:10 11.27784 106.98488 19167 ft 413 kts 43°
2026-04-24 05:10 11.29867 107.00450 19688 ft 416 kts 43°
2026-04-24 05:10 11.32002 107.02461 20205 ft 419 kts 43°
2026-04-24 05:11 11.34150 107.04480 20707 ft 423 kts 42°
2026-04-24 05:11 11.36382 107.06427 21195 ft 426 kts 39°
2026-04-24 05:11 11.38723 107.08270 21674 ft 429 kts 37°
2026-04-24 05:11 11.41118 107.10101 22140 ft 432 kts 37°
2026-04-24 05:12 11.43502 107.11918 22586 ft 434 kts 37°
2026-04-24 05:12 11.45942 107.13776 23029 ft 437 kts 37°
2026-04-24 05:12 11.48366 107.15624 23455 ft 440 kts 37°
2026-04-24 05:12 11.50816 107.17494 23868 ft 443 kts 37°
2026-04-24 05:13 11.55754 107.21266 24653 ft 448 kts 37°
2026-04-24 05:13 11.58257 107.23179 25026 ft 451 kts 37°
2026-04-24 05:13 11.60759 107.25092 25388 ft 453 kts 37°
2026-04-24 05:14 11.63295 107.27032 25738 ft 455 kts 37°
2026-04-24 05:14 11.65801 107.28949 26072 ft 458 kts 37°
2026-04-24 05:14 11.68339 107.30891 26505 ft 457 kts 37°
2026-04-24 05:14 11.70874 107.32832 26986 ft 455 kts 37°
2026-04-24 05:15 11.73376 107.34747 27436 ft 454 kts 37°
2026-04-24 05:15 11.75923 107.36697 27865 ft 453 kts 37°
2026-04-24 05:15 11.78434 107.38621 28277 ft 453 kts 37°
2026-04-24 05:15 11.80906 107.40515 28679 ft 452 kts 37°
2026-04-24 05:16 11.83429 107.42448 29083 ft 451 kts 37°
2026-04-24 05:16 11.85915 107.44353 29475 ft 450 kts 37°
2026-04-24 05:16 11.88408 107.46265 29859 ft 449 kts 37°
2026-04-24 05:16 11.90918 107.48189 30238 ft 449 kts 37°
2026-04-24 05:17 11.93391 107.50087 30602 ft 448 kts 37°
2026-04-24 05:17 11.95862 107.51983 30959 ft 447 kts 37°
2026-04-24 05:17 11.98359 107.53899 31311 ft 447 kts 37°
2026-04-24 05:17 12.00827 107.55794 31649 ft 446 kts 37°
2026-04-24 05:18 12.03287 107.57683 31973 ft 445 kts 37°
2026-04-24 05:18 12.05766 107.59586 32292 ft 445 kts 37°
2026-04-24 05:18 12.08238 107.61485 32603 ft 444 kts 37°
2026-04-24 05:18 12.10691 107.63370 32901 ft 444 kts 37°
2026-04-24 05:19 12.13138 107.65250 33186 ft 443 kts 37°
2026-04-24 05:19 12.15594 107.67139 33436 ft 443 kts 37°
2026-04-24 05:19 12.18041 107.69020 33646 ft 444 kts 37°
2026-04-24 05:19 12.20509 107.70918 33846 ft 445 kts 37°
2026-04-24 05:20 12.22987 107.72824 34046 ft 446 kts 37°
2026-04-24 05:20 12.25456 107.74724 34243 ft 447 kts 37°
2026-04-24 05:20 12.28015 107.76540 34428 ft 448 kts 32°
2026-04-24 05:20 12.30742 107.78090 34606 ft 449 kts 26°
2026-04-24 05:21 12.33589 107.79339 34778 ft 449 kts 20°
2026-04-24 05:21 12.36578 107.80292 34942 ft 450 kts 14°
2026-04-24 05:21 12.39597 107.80920 34977 ft 451 kts
2026-04-24 05:22 12.45842 107.81328 34984 ft 451 kts
2026-04-24 05:22 12.52102 107.81420 34985 ft 451 kts
2026-04-24 05:23 12.58361 107.81520 34985 ft 451 kts
2026-04-24 05:23 12.64609 107.81635 34985 ft 451 kts
2026-04-24 05:24 12.70835 107.81756 34985 ft 451 kts
2026-04-24 05:24 12.77127 107.81879 34985 ft 451 kts
2026-04-24 05:25 12.83370 107.82002 34985 ft 451 kts
2026-04-24 05:25 12.89619 107.82126 34985 ft 451 kts
2026-04-24 05:26 12.95886 107.82250 34985 ft 451 kts
2026-04-24 05:26 13.02113 107.82373 34985 ft 451 kts
2026-04-24 05:27 13.08370 107.82497 34985 ft 451 kts
2026-04-24 05:27 13.14647 107.82621 34985 ft 451 kts
2026-04-24 05:28 13.20883 107.82745 34985 ft 451 kts
2026-04-24 05:28 13.27154 107.82870 34985 ft 451 kts
2026-04-24 05:29 13.33362 107.82993 34985 ft 451 kts
2026-04-24 05:29 13.39644 107.83122 34985 ft 451 kts
2026-04-24 05:30 13.45897 107.83253 34985 ft 451 kts
2026-04-24 05:30 13.52130 107.83382 34985 ft 451 kts
2026-04-24 05:31 13.58388 107.83513 34985 ft 451 kts
2026-04-24 05:31 13.64632 107.83643 34985 ft 451 kts
2026-04-24 05:32 13.70878 107.83774 34985 ft 451 kts
2026-04-24 05:32 13.77148 107.83904 34985 ft 451 kts
2026-04-24 05:33 13.83426 107.84036 34985 ft 451 kts
2026-04-24 05:33 13.89644 107.84166 34985 ft 451 kts
2026-04-24 05:34 13.99023 107.84368 34988 ft 451 kts
2026-04-24 05:34 14.05296 107.84376 34985 ft 451 kts 360°
2026-04-24 05:35 14.11528 107.84370 34985 ft 451 kts
2026-04-24 05:35 14.17818 107.84373 34985 ft 451 kts
2026-04-24 05:36 14.24099 107.84374 34985 ft 451 kts
2026-04-24 05:36 14.30356 107.84377 34985 ft 451 kts
2026-04-24 05:37 14.36603 107.84377 34985 ft 451 kts
2026-04-24 05:37 14.42844 107.84379 34985 ft 451 kts
2026-04-24 05:38 14.49105 107.84380 34985 ft 451 kts
2026-04-24 05:38 14.55355 107.84381 34959 ft 452 kts
2026-04-24 05:39 14.58487 107.84381 34616 ft 452 kts
2026-04-24 05:39 14.61583 107.84381 34129 ft 449 kts
2026-04-24 05:39 14.64712 107.84382 33519 ft 448 kts
2026-04-24 05:39 14.67795 107.84382 32863 ft 449 kts
2026-04-24 05:40 14.70913 107.84383 32174 ft 450 kts
2026-04-24 05:40 14.74055 107.84383 31461 ft 452 kts
2026-04-24 05:40 14.77150 107.84384 30747 ft 453 kts
2026-04-24 05:40 14.80313 107.84385 30007 ft 455 kts
2026-04-24 05:41 14.83454 107.84390 29258 ft 456 kts
2026-04-24 05:41 14.86612 107.84603 28151 ft 465 kts
2026-04-24 05:41 14.89787 107.85210 26828 ft 464 kts 14°
2026-04-24 05:41 14.92813 107.86170 25950 ft 456 kts 19°
2026-04-24 05:42 14.95777 107.87266 25071 ft 451 kts 20°
2026-04-24 05:42 14.98650 107.88359 24204 ft 444 kts 20°
2026-04-24 05:42 15.01522 107.89454 23326 ft 438 kts 20°
2026-04-24 05:42 15.04367 107.90534 22363 ft 434 kts 20°
2026-04-24 05:43 15.07206 107.91607 21337 ft 439 kts 20°
2026-04-24 05:43 15.10074 107.92688 20335 ft 444 kts 20°
2026-04-24 05:43 15.12983 107.93783 19328 ft 448 kts 20°
2026-04-24 05:43 15.15886 107.94875 18530 ft 446 kts 20°
2026-04-24 05:44 15.18773 107.95961 17904 ft 440 kts 20°
2026-04-24 05:44 15.21594 107.97023 17283 ft 434 kts 20°
2026-04-24 05:44 15.24412 107.98083 16655 ft 429 kts 20°
2026-04-24 05:44 15.27181 107.99126 16038 ft 418 kts 20°
2026-04-24 05:45 15.29820 108.00118 15426 ft 395 kts 20°
2026-04-24 05:45 15.32336 108.01064 14800 ft 376 kts 20°
2026-04-24 05:45 15.34725 108.01963 14176 ft 360 kts 20°
2026-04-24 05:45 15.36997 108.02818 13557 ft 346 kts 20°
2026-04-24 05:46 15.39231 108.03660 12925 ft 334 kts 20°
2026-04-24 05:46 15.41358 108.04461 12303 ft 324 kts 20°
2026-04-24 05:46 15.43377 108.05412 11653 ft 315 kts 36°
2026-04-24 05:46 15.44717 108.07081 11146 ft 301 kts 68°
2026-04-24 05:47 15.45054 108.09158 10998 ft 291 kts 95°
2026-04-24 05:47 15.44505 108.11154 10995 ft 292 kts 120°
2026-04-24 05:47 15.43179 108.12743 10992 ft 292 kts 145°
2026-04-24 05:47 15.41331 108.13579 10978 ft 293 kts 171°
2026-04-24 05:48 15.39316 108.13491 10986 ft 292 kts 195°
2026-04-24 05:48 15.37392 108.12811 10996 ft 292 kts 200°
2026-04-24 05:48 15.35498 108.12070 10994 ft 292 kts 200°
2026-04-24 05:48 15.33587 108.11334 10993 ft 292 kts 200°
2026-04-24 05:49 15.31679 108.10616 10993 ft 292 kts 200°
2026-04-24 05:49 15.29913 108.09643 10976 ft 292 kts 222°
2026-04-24 05:49 15.28721 108.07951 10985 ft 292 kts 249°
2026-04-24 05:49 15.28386 108.05911 10989 ft 292 kts 275°
2026-04-24 05:50 15.28950 108.03918 10991 ft 292 kts 301°
2026-04-24 05:50 15.30282 108.02392 10988 ft 283 kts 327°
2026-04-24 05:50 15.32089 108.01627 10990 ft 281 kts 352°
2026-04-24 05:50 15.34014 108.01762 10782 ft 281 kts 19°
2026-04-24 05:51 15.35794 108.02544 10544 ft 279 kts 25°
2026-04-24 05:51 15.37527 108.03396 10295 ft 278 kts 25°
2026-04-24 05:51 15.39266 108.04252 10045 ft 277 kts 25°
2026-04-24 05:51 15.41001 108.05097 9795 ft 276 kts 25°
2026-04-24 05:52 15.42733 108.05933 9545 ft 275 kts 25°
2026-04-24 05:52 15.44465 108.06763 9294 ft 274 kts 25°
2026-04-24 05:52 15.46171 108.07580 9047 ft 273 kts 25°
2026-04-24 05:52 15.47902 108.08405 8795 ft 272 kts 25°
2026-04-24 05:53 15.49606 108.09218 8545 ft 271 kts 25°
2026-04-24 05:53 15.51315 108.10033 8295 ft 270 kts 25°
2026-04-24 05:53 15.52996 108.10835 8046 ft 269 kts 25°
2026-04-24 05:53 15.54698 108.11647 7794 ft 268 kts 25°
2026-04-24 05:54 15.56372 108.12446 7546 ft 267 kts 25°
2026-04-24 05:54 15.58045 108.13245 7296 ft 266 kts 26°
2026-04-24 05:54 15.59546 108.14346 7030 ft 264 kts 50°
2026-04-24 05:54 15.60415 108.15990 6781 ft 264 kts 76°
2026-04-24 05:55 15.60736 108.17855 6541 ft 263 kts 82°
2026-04-24 05:55 15.60963 108.19732 6288 ft 258 kts 83°
2026-04-24 05:55 15.61184 108.21551 6037 ft 253 kts 82°
2026-04-24 05:55 15.61516 108.23307 5775 ft 248 kts 67°
2026-04-24 05:56 15.62467 108.24759 5518 ft 242 kts 40°
2026-04-24 05:56 15.63907 108.25617 5264 ft 237 kts 15°
2026-04-24 05:56 15.65504 108.25769 5086 ft 228 kts 354°
2026-04-24 05:56 15.67056 108.25548 5087 ft 225 kts 351°
2026-04-24 05:57 15.68592 108.25290 5081 ft 226 kts 351°
2026-04-24 05:57 15.70143 108.25034 5061 ft 227 kts 351°
2026-04-24 05:57 15.71710 108.24785 4906 ft 225 kts 351°
2026-04-24 05:57 15.73252 108.24548 4759 ft 225 kts 352°
2026-04-24 05:58 15.74768 108.24322 4673 ft 216 kts 352°
2026-04-24 05:58 15.76215 108.24111 4567 ft 202 kts 352°
2026-04-24 05:58 15.77547 108.23919 4476 ft 187 kts 352°
2026-04-24 05:58 15.78772 108.23743 4446 ft 168 kts 352°
2026-04-24 05:59 15.79917 108.23579 4445 ft 164 kts 352°
2026-04-24 05:59 15.81039 108.23418 4324 ft 161 kts 352°
2026-04-24 05:59 15.82107 108.23265 4094 ft 151 kts 352°
2026-04-24 05:59 15.83147 108.23116 3890 ft 150 kts 352°
2026-04-24 06:00 15.84173 108.22968 3691 ft 150 kts 352°
2026-04-24 06:00 15.85207 108.22819 3492 ft 149 kts 352°
2026-04-24 06:00 15.86232 108.22671 3295 ft 149 kts 352°
2026-04-24 06:00 15.87256 108.22523 3098 ft 149 kts 352°
2026-04-24 06:01 15.88285 108.22375 2900 ft 148 kts 352°
2026-04-24 06:01 15.89290 108.22229 2707 ft 148 kts 352°
2026-04-24 06:01 15.90316 108.22080 2510 ft 147 kts 352°
2026-04-24 06:01 15.91329 108.21934 2315 ft 147 kts 352°
2026-04-24 06:02 15.92330 108.21789 2121 ft 146 kts 352°
2026-04-24 06:02 15.93343 108.21641 1925 ft 146 kts 352°
2026-04-24 06:02 15.94337 108.21497 1733 ft 146 kts 352°
2026-04-24 06:02 15.95344 108.21352 1538 ft 145 kts 352°
2026-04-24 06:03 15.96342 108.21207 1344 ft 145 kts 352°
2026-04-24 06:03 15.97333 108.21065 1134 ft 144 kts 352°
2026-04-24 06:03 15.98319 108.20919 913 ft 144 kts 352°
2026-04-24 06:03 15.99302 108.20770 710 ft 143 kts 352°
2026-04-24 06:04 16.00295 108.20622 525 ft 143 kts 352°
2026-04-24 06:04 16.01273 108.20487 355 ft 143 kts 353°
2026-04-24 06:04 16.02264 108.20354 181 ft 142 kts 352°
2026-04-24 06:04 16.03236 108.20210 49 ft 137 kts 352°
2026-04-24 06:05 16.04061 108.20086 42 ft 98 kts 352°
2026-04-24 06:05 16.04604 108.20006 42 ft 69 kts 352°
2026-04-24 06:05 16.04900 108.20004 42 ft 18 kts 59°
2026-04-24 06:05 16.04930 108.20091 42 ft 11 kts 37°
2026-04-24 06:06 16.04970 108.20091 42 ft 5 kts
2026-04-24 06:06 16.05016 108.20088 42 ft 12 kts 348°
2026-04-24 06:06 16.05130 108.20071 42 ft 16 kts 352°
2026-04-24 06:06 16.05209 108.20087 42 ft 7 kts 63°
2026-04-24 06:07 16.05217 108.20145 42 ft 8 kts 82°
2026-04-24 06:07 16.05222 108.20181 42 ft 0 kts 82°